Regional Weather Roundup
Issued by NWS State College, PA

Home | Current Version | Previous Version | Text Only | Print | Product List | Glossary On
Versions: 1 2 3 4 5 6 7 8 9 10 11 12 13 14 15 16 17 18 19 20 21 22 23 24 25 26 27 28 29 30 31 32 33 34 35 36 37 38 39 40 41 42 43 44 45 46 47 48 49 50
000
ASUS41 KCTP 232010
RWRCTP

REGIONAL WEATHER ROUNDUP
NATIONAL WEATHER SERVICE STATE COLLEGE PA
400 PM EDT WED APR 23 2014

Note: "fair" indicates few or no clouds below 12,000 feet with no
significant weather and/or obstructions to visibility.

* = STATION THAT DOES NOT REPORT PRECIPITATION /E.G. RAIN...SNOW...ETC/
    THUNDER OR FOG.

PAZ002>004-007>009-013>016-020>023-029>032-232100-
WESTERN PENNSYLVANIA

CITY           SKY/WX    TMP DP  RH WIND       PRES   REMARKS
ERIE           SUNNY     45  29  53 W14G25    30.02S
MEADVILLE      PTSUNNY   44  28  53 NW14G21   30.00S
FRANKLIN*      CLOUDY    43  27  52 W10G21    30.01R
NEW CASTLE     MOCLDY    47  31  54 W8        30.04S
BEAVER COUNTY  CLOUDY    45  32  61 NW12G21   30.03R
BUTLER*        CLOUDY    45  30  57 W7G22     30.02S
PITTSBURGH INT CLOUDY    45  32  60 NW18      30.01S
PITTSBURGH     PTSUNNY   48  31  51 NW13G22   29.99R
INDIANA*       CLOUDY    41  36  81 NW14      29.98R
LATROBE        PTSUNNY   46  34  61 W12G20    30.00S
WASHINGTON CO* CLOUDY    48  32  53 W9G21     30.04R
$$

PAZ004>006-010>012-017>019-024>028-033>037-041-042-045-046-049>053-232100-
CENTRAL PENNSYLVANIA

CITY           SKY/WX    TMP DP  RH WIND       PRES   REMARKS
BRADFORD       CLOUDY    37  29  72 NW15G23   29.91S
DUBOIS         CLOUDY    39  32  76 W15G23    29.93S
CLEARFIELD     CLOUDY    40  32  73 W10G22    29.93R
JOHNSTOWN      CLOUDY    37  31  78 W15       29.92R
ALTOONA        CLOUDY    43  34  70 NW14G23   29.91S
STATE COLLEGE  CLOUDY    45  32  61 NW15G24   29.89R
WILLIAMSPORT   CLOUDY    51  31  46 NW20      29.82R
SELINSGROVE    CLOUDY    53  33  46 NW15G26   29.82R
FT INDIANTOWN  PTSUNNY   53  34  47 W15G22    29.79S
CAPITAL CITY   PTSUNNY   52  34  50 NW18G28   29.84R
HARRISBURG     PTSUNNY   56  35  45 NW25G36   29.81R
YORK           CLOUDY    55  36  48 W21G28    29.82R
$$

PAZ038>040-043-044-047-048-054-055-060>062-067>071-232100-
EASTERN PENNSYLVANIA

CITY           SKY/WX    TMP DP  RH WIND       PRES   REMARKS
SCRANTON       CLOUDY    46  33  60 NW20G30   29.78R
MOUNT POCONO   CLOUDY    42  33  70 NW20G28   29.72R
ALLENTOWN      CLOUDY    55  34  45 NW17G30   29.73R
QUAKERTOWN*    CLOUDY    54  36  50 W10G22    29.73R
READING        PTSUNNY   57  36  45 NW21G30   29.75S
LANCASTER      CLOUDY    53  34  48 W23G30    29.78R
COATESVILLE    MOCLDY    54  36  50 NW25G31   29.76S
POTTSTOWN      CLOUDY    55  35  47 NW20G28   29.74R
BLUE BELL      MOSUNNY   59  34  38 NW12G23   29.71R
DOYLESTOWN     MOSUNNY   55  35  47 NW15G30   29.70R
WILLOW GROVE   NOT AVBL
NORTH PHILA    MOSUNNY   60  33  36 NW22G33   29.71R
PHILADELPHIA   PTSUNNY   60  32  34 NW22G36   29.73R
$$



USA.gov is the U.S. government's official web portal to all federal, state and local government web resources and services.